CW5229 Weather Reports


Display with metric or nautical units.
time (UTC)temp
F
wind
direction
speed
MPH
gust
MPH
rain 1hr
in
rain 24hr
in
rain mn
in
humidity
%
barometer
mb
20260509123019 51 210 1.0 4.0 0.00 0.00 0.00 91 1003.8
20260509121510 50 226 0.0 3.0 0.00 0.00 0.00 91 1003.3
20260509120007 49 242 1.0 4.0 0.00 0.00 0.00 91 1003.2
20260509114506 50 246 1.0 5.0 0.00 0.00 0.00 91 1003.0
20260509113004 49 263 0.0 3.0 0.00 0.00 0.00 92 1003.0
20260509111501 49 227 1.0 4.0 0.00 0.00 0.00 92 1003.2
20260509110108 49 231 1.0 7.0 0.00 0.00 0.00 92 1003.1
20260509110001 49 257 1.0 7.0 0.00 0.00 0.00 92 1003.1
20260509104610 49 170 0.0 4.0 0.00 0.00 0.00 91 1003.2
20260509103057 49 151 1.0 4.0 0.00 0.00 0.00 91 1003.2
20260509101525 49 243 0.0 4.0 0.00 0.00 0.00 91 1003.2
20260509100024 49 230 0.0 3.0 0.00 0.00 0.00 91 1003.4
20260509094602 49 198 0.0 2.0 0.00 0.00 0.00 91 1003.7
20260509093052 49 253 0.0 3.0 0.00 0.00 0.00 91 1003.7
20260509091547 49 168 0.0 2.0 0.00 0.00 0.00 91 1003.9
20260509090056 49 162 0.0 1.0 0.00 0.00 0.00 90 1003.7
20260509084551 49 221 0.0 2.0 0.00 0.00 0.00 90 1003.7
20260509083047 49 285 0.0 2.0 0.00 0.00 0.00 90 1003.5
20260509081544 49 259 0.0 1.0 0.00 0.00 0.00 90 1003.7
20260509080036 49 242 0.0 1.0 0.00 0.00 0.00 89 1003.6
20260509074535 49 229 0.0 1.0 0.00 0.00 0.00 89 1003.9
20260509073031 50 217 0.0 1.0 0.00 0.00 0.00 88 1004.0
20260509071527 50 254 0.0 1.0 0.00 0.00 0.00 88 1004.0
20260509070023 51 249 0.0 1.0 0.00 0.00 0.00 87 1004.0
20260509064520 51 252 0.0 2.0 0.00 0.00 0.00 87 1004.2
20260509063016 52 241 0.0 1.0 0.00 0.00 0.00 86 1004.4
20260509061514 52 248 0.0 4.0 0.00 0.00 0.00 87 1004.7
20260509060011 52 239 0.0 2.0 0.00 0.00 0.00 86 1004.7
20260509054521 52 200 0.0 2.0 0.00 0.00 0.00 86 1004.6
20260509053013 52 244 0.0 2.0 0.00 0.00 0.00 86 1004.7
20260509051505 53 222 0.0 3.0 0.00 0.00 0.00 86 1004.7
20260509050005 53 224 0.0 2.0 0.00 0.00 0.00 85 1004.9
20260509044600 53 250 0.0 5.0 0.00 0.00 0.00 85 1005.0
20260509043059 54 250 0.0 3.0 0.00 0.00 0.00 84 1005.1
20260509041555 54 167 0.0 3.0 0.00 0.00 0.00 83 1005.1
20260509040109 55 266 0.0 2.0 0.00 0.00 0.00 83 1005.3
20260509034612 55 226 0.0 3.0 0.00 0.00 0.00 82 1005.5
20260509033049 55 248 0.0 2.0 0.00 0.00 0.00 80 1005.3
20260509031546 56 217 0.0 3.0 0.00 0.00 0.00 79 1005.5
20260509030042 56 162 0.0 2.0 0.00 0.00 0.00 78 1005.5
20260509024543 57 257 0.0 2.0 0.00 0.00 0.00 77 1005.6
20260509023045 57 240 0.0 3.0 0.00 0.00 0.00 77 1005.6
20260509021535 58 226 0.0 4.0 0.00 0.00 0.00 76 1005.5
20260509020002 58 160 1.0 5.0 0.00 0.00 0.00 75 1005.4
20260509014615 59 186 1.0 4.0 0.00 0.00 0.00 74 1005.1
20260509013110 60 251 1.0 5.0 0.00 0.00 0.00 72 1005.1
20260509011603 60 257 1.0 8.0 0.00 0.00 0.00 70 1005.1
20260509010051 60 231 0.0 2.0 0.00 0.00 0.00 67 1005.0
20260509004549 61 176 0.0 0.0 0.00 0.00 0.00 66 1005.0
20260509003106 62 230 0.0 1.0 0.00 0.00 0.00 65 1004.9
20260509001541 63 265 0.0 3.0 0.00 0.00 0.00 64 1004.9
20260509000039 64 252 0.0 6.0 0.00 0.00 0.00 63 1004.9
20260508234541 64 209 1.0 7.0 0.00 0.03 0.00 61 1004.9
20260508233036 65 157 2.0 5.0 0.00 0.03 0.00 61 1004.9
20260508231539 66 251 1.0 4.0 0.00 0.03 0.00 61 1005.0
20260508230034 66 203 0.0 4.0 0.00 0.03 0.00 59 1005.1
20260508224536 66 270 1.0 5.0 0.00 0.03 0.00 59 1005.1
20260508223030 66 146 1.0 8.0 0.00 0.03 0.00 57 1005.1
20260508221529 68 190 2.0 5.0 0.00 0.03 0.00 55 1005.2
20260508220029 68 139 0.0 3.0 0.00 0.03 0.00 56 1005.1
20260508214527 68 252 2.0 5.0 0.00 0.03 0.00 56 1005.3
20260508213023 68 245 0.0 4.0 0.00 0.03 0.00 57 1005.4
20260508211527 69 259 0.0 4.0 0.00 0.03 0.00 57 1005.5
20260508210019 69 122 0.0 5.0 0.00 0.03 0.00 58 1005.6
20260508204519 68 262 0.0 3.0 0.00 0.03 0.00 60 1005.7
20260508203014 67 246 0.0 4.0 0.00 0.03 0.00 58 1006.0
20260508201510 67 245 0.0 4.0 0.00 0.03 0.00 56 1006.3
20260508200009 68 229 1.0 4.0 0.00 0.03 0.00 54 1006.6
20260508194507 69 87 0.0 3.0 0.00 0.03 0.00 58 1006.7
20260508193111 67 97 0.0 2.0 0.00 0.03 0.00 61 1006.8
20260508191558 67 137 0.0 2.0 0.00 0.03 0.00 61 1006.9
20260508190100 65 142 0.0 3.0 0.00 0.03 0.00 60 1007.1
20260508190058 65 142 0.0 4.0 0.00 0.03 0.00 60 1007.1
20260508184602 66 226 1.0 3.0 0.00 0.03 0.00 59 1007.3
20260508183102 65 254 0.0 3.0 0.00 0.03 0.00 61 1007.6
20260508181546 64 231 0.0 3.0 0.00 0.03 0.00 63 1007.6
20260508180045 64 155 0.0 4.0 0.00 0.03 0.00 62 1007.8
20260508174558 65 62 2.0 5.0 0.00 0.03 0.00 63 1008.0
20260508173040 64 132 0.0 4.0 0.00 0.03 0.00 66 1008.2
20260508171535 64 233 0.0 6.0 0.00 0.03 0.00 65 1008.6
20260508170035 64 87 0.0 2.0 0.00 0.03 0.00 65 1008.7
20260508164529 63 259 0.0 4.0 0.00 0.03 0.03 67 1009.0
20260508163041 64 243 2.0 4.0 0.00 0.03 0.03 66 1009.2
20260508161557 64 94 0.0 3.0 0.00 0.03 0.03 67 1009.3
20260508160054 64 343 0.0 3.0 0.00 0.03 0.03 68 1009.4
20260508154521 63 248 0.0 5.0 0.00 0.03 0.03 69 1009.6
20260508153026 62 203 0.0 2.0 0.00 0.03 0.03 68 1009.8
20260508151547 62 249 0.0 4.0 0.00 0.03 0.03 71 1009.7
20260508150044 61 247 0.0 4.0 0.00 0.03 0.03 72 1009.8
20260508144539 60 131 0.0 5.0 0.00 0.03 0.03 75 1009.9
20260508143037 58 250 0.0 3.0 0.00 0.03 0.03 78 1010.0
20260508141535 57 210 0.0 2.0 0.00 0.03 0.03 81 1010.1
20260508140034 55 224 0.0 5.0 0.00 0.03 0.03 82 1010.2
20260508134537 54 245 0.0 1.0 0.00 0.03 0.03 84 1010.2
20260508133041 53 255 0.0 1.0 0.00 0.03 0.03 85 1010.2
20260508131529 51 223 0.0 1.0 0.00 0.03 0.03 86 1010.3
20260508130028 50 37 0.0 2.0 0.00 0.03 0.03 86 1010.2
20260508124527 49 41 0.0 1.0 0.00 0.03 0.03 87 1010.4